This is the latest recevied weather packets stored in our database for station/object KO4ZGL-13. If no packets are shown the sender has not sent any weather packets the latest 10 day(s).
| Time | Temp. | Humidity | Pressure | Rain* | Wind** | Luminosity | Snow |
|---|---|---|---|---|---|---|---|
| 1788010822 | 23.89° C | 99% | 1021.8 hPa | 0 mm | - | 82 W/m² | - |
| 1788010521 | 23.89° C | 99% | 1021.4 hPa | 0 mm | - | 89 W/m² | - |
| 1788010216 | 23.89° C | 99% | 1021.3 hPa | 0 mm | - | 99 W/m² | - |
| 1788009916 | 23.89° C | 99% | 1021.6 hPa | 0 mm | - | 104 W/m² | - |
| 1788009614 | 23.33° C | 99% | 1021.3 hPa | 0 mm | - | 100 W/m² | - |
| 1788009309 | 23.89° C | 99% | 1021.4 hPa | 0 mm | - | 88 W/m² | - |
| 1788009004 | 23.89° C | 99% | 1021.3 hPa | 0 mm | - | 69 W/m² | - |
| 1788008699 | 23.89° C | 99% | 1021 hPa | 0 mm | - | 62 W/m² | - |
| 1788008397 | 23.89° C | 99% | 1020.9 hPa | 0 mm | - | 58 W/m² | - |
| 1788008095 | 23.33° C | 99% | 1021 hPa | 0 mm | - | 53 W/m² | - |
| 1788007794 | 23.33° C | 99% | 1021 hPa | 0 mm | - | 47 W/m² | - |
| 1788007489 | 23.33° C | 99% | 1020.9 hPa | 1.78 mm | - | 47 W/m² | - |
| 1788007188 | 23.33° C | 99% | 1020.8 hPa | 1.78 mm | - | 42 W/m² | - |
| 1788006887 | 23.33° C | 99% | 1021.2 hPa | 0 mm | - | 34 W/m² | - |
| 1788006582 | 23.33° C | 99% | 1021.2 hPa | 0 mm | - | 30 W/m² | - |
| 1788006277 | 23.33° C | 99% | 1020.9 hPa | 0 mm | - | 29 W/m² | - |
| 1788005975 | 23.33° C | 99% | 1021 hPa | 0 mm | - | 30 W/m² | - |
| 1788005670 | 23.33° C | 99% | 1020.8 hPa | 0 mm | - | 29 W/m² | - |
| 1788005365 | 23.33° C | 99% | 1020.8 hPa | 0 mm | - | 29 W/m² | - |
| 1788005063 | 23.33° C | 99% | 1021.1 hPa | 0 mm | - | 26 W/m² | - |
| 1788004756 | 23.33° C | 99% | 1021 hPa | 0 mm | - | 26 W/m² | - |
| 1788004452 | 23.33° C | 99% | 1020.8 hPa | 0 mm | - | 24 W/m² | - |
| 1788004151 | 23.33° C | 99% | 1021 hPa | 0 mm | - | 22 W/m² | - |
| 1788003850 | 23.33° C | 99% | 1020.7 hPa | 0 mm | - | 21 W/m² | - |
| 1788003550 | 23.33° C | 99% | 1020.8 hPa | 0 mm | - | 19 W/m² | - |
* Rain latest hour (hover to see other rain measurements)
** Current wind speed in m/s (hover to see current wind gust speed)